Location: Unspecified
(0.0000°N, 0.0000°E)
Time: 12:46:57
(UTC+00:00)

Vanguard 2 - Pass Details

Date: 16 September 2019
Orbit: 554 x 2937 km, 32.9° (Epoch: 13 October)

Event Time Altitude Azimuth Distance (km) Brightness Sun altitude
Rises 19:08:47 0° 217° (SW) 5,448 12.4 -18.5°
Reaches altitude 10° 19:15:11 10° 194° (SSW) 4,958 11.8 -20.1°
Maximum altitude 19:22:01 14° 166° (SSE) 5,018 11.5 -21.8°
Drops below altitude 10° 19:29:41 10° 139° (SE) 5,667 11.5 -23.7°
Enters shadow 19:30:25 - 137° (SE) 5,751 11.6 -23.9°
Sets 19:38:12 0° 117° (ESE) 6,792 - -25.8°
